Flag Weather past 2 weeks in Larnaca, Cyprus

Now
61 °F

Passing clouds.


Feels Like: 61 °F
Forecast: 52 / 68 °F
Wind: 12 mph from Southwest

Location: Larnaca Airport

Current Time: Nov 21, 2014 at 9:37:46 PM

Latest Report: Nov 21, 2014 at 9:00 PM


Visibility: N/A

Pressure: 29.86 "Hg

Humidity: 52%

Dew point: 43 °F

Location of LarnacaLocation

Historic Weather in Larnaca — Graph

°F

Larnaca temperature yesterday

Maximum temperature yesterday: 75 °F (at 12:00 PM)
Minimum temperature yesterday: 59 °F (at 3:00 AM)
Average temperature yesterday: 66 °F

Past Weeks' High & Low Weather Summary

 TemperatureHumidityPressure
High79 °F (Nov 10, 1:30 PM)94% (Nov 16, 3:30 AM)30.27 "Hg (Nov 16, 3:30 AM)
Low54 °F (Nov 7, 4:00 AM)29% (Nov 7, 3:30 PM)29.80 "Hg (Nov 21, 12:30 PM)
Average66 °F62%30.03 "Hg
* Reported Nov 6 8:00 PM — Nov 21 8:30 PM, Larnaca, Weather by CustomWeather, © 2014

Note: Actual official high and low records may vary slightly from our data, if they occured in-between our weather recording intervals... More about our weather records

Advertising

Larnaca weather history for previous 24 hours

 ConditionsComfort  
Time TempWeatherWind HumidityBarometerVisibility
8:30 PM
Nov 21
59 °FPassing clouds.6 mph59%29.83 "HgN/A
8:00 PM59 °FPassing clouds.7 mph63%29.86 "HgN/A
7:30 PM59 °FPassing clouds.9 mph68%29.83 "HgN/A
7:00 PM63 °FPassing clouds.13 mph56%29.83 "HgN/A
6:30 PM61 °FPassing clouds.7 mph68%29.83 "HgN/A
6:00 PM63 °FPassing clouds.5 mph59%29.83 "HgN/A
5:30 PM63 °FPassing clouds.6 mph64%29.83 "HgN/A
5:00 PM64 °FPassing clouds.7 mph60%29.80 "HgN/A
4:30 PM64 °FPassing clouds.7 mph56%29.80 "HgN/A
4:00 PM66 °FPassing clouds.10 mph52%29.80 "HgN/A
3:30 PM68 °FPassing clouds.9 mph43%29.80 "HgN/A
3:00 PM72 °FPassing clouds.12 mph41%29.80 "HgN/A
2:30 PM72 °FScattered clouds.3 mph44%29.80 "HgN/A
2:00 PM73 °FScattered clouds.5 mph44%29.80 "HgN/A
1:30 PM70 °FScattered clouds.5 mph50%29.80 "HgN/A
1:00 PM72 °FPassing clouds.6 mph53%29.80 "HgN/A
12:30 PM70 °FPassing clouds.2 mph57%29.80 "HgN/A
12:00 PM68 °FPassing clouds.No wind64%29.83 "HgN/A
11:30 AM64 °FPassing clouds.3 mph68%29.83 "HgN/A
11:00 AM63 °FPassing clouds.7 mph73%29.86 "HgN/A
10:30 AM61 °FSprinkles. Broken clouds.15 mph77%29.86 "HgN/A
10:00 AM59 °FThunderstorms. Broken clouds.9 mph88%29.86 "HgN/A
9:30 AM61 °FStrong thunderstorms. Broken clouds.17 mph77%29.89 "Hg1 mi
9:00 AM66 °FThunderstorms. Scattered clouds.10 mph64%29.86 "HgN/A
8:30 AM66 °FThunderstorms. Scattered clouds.8 mph64%29.86 "HgN/A
8:00 AM66 °FPassing clouds.6 mph68%29.86 "HgN/A
7:30 AM64 °FPassing clouds.9 mph73%29.86 "HgN/A
7:00 AM61 °FPassing clouds.2 mph77%29.86 "HgN/A
6:30 AM61 °FPassing clouds.1 mph72%29.86 "HgN/A
6:00 AM63 °FScattered showers. Passing clouds.5 mph68%29.89 "HgN/A
5:30 AM63 °FPassing clouds.8 mph68%29.89 "HgN/A
5:00 AM63 °FPassing clouds.3 mph73%29.89 "HgN/A
4:30 AM63 °FPassing clouds.2 mph73%29.89 "HgN/A
4:00 AM63 °FSprinkles. Passing clouds.6 mph73%29.89 "HgN/A
3:30 AM64 °FPassing clouds.7 mph68%29.92 "HgN/A
3:00 AM64 °FPassing clouds.12 mph68%29.92 "HgN/A
2:30 AM63 °FPassing clouds.12 mph77%29.92 "HgN/A
2:00 AM63 °FPassing clouds.6 mph73%29.92 "HgN/A
1:30 AM64 °FPassing clouds.7 mph68%29.92 "HgN/A
1:00 AM64 °FPassing clouds.9 mph73%29.95 "HgN/A
12:30 AM63 °FPassing clouds.6 mph73%29.95 "HgN/A
12:00 AM63 °FPassing clouds.6 mph73%29.95 "HgN/A
11:00 PM
Nov 20
63 °FPassing clouds.6 mph73%29.98 "HgN/A
10:30 PM63 °FPassing clouds.6 mph73%29.98 "HgN/A
10:00 PM63 °FPassing clouds.7 mph73%29.98 "HgN/A
9:30 PM61 °FPassing clouds.6 mph77%29.98 "HgN/A
9:00 PM61 °FPassing clouds.5 mph77%29.98 "HgN/A
Weather by CustomWeather, © 2014

See weather overviewHow to use our weather pages